WXM80 ListenWXM80 Stop

You find our weather info also at:

UK Metoffice

WeatherCloud

Weather Underground

Northeastern Weather Network

AWEKAS

Citizen Weather Observer Program (CWOP)

HAMweather, WeatherForYou, PWS Weather


Weather Underground History page Text

Daily Summary for January 12, 2016 Units:  English    Metric   Both
« Previous Day
Next Day »
Daily Weekly Monthly Yearly Custom
  High: Low: Average:
Temperature: TemperatureF °F 20.0 °F 32.4 °F
Dew Point: DewpointF °F 11.7 °F 22.1 °F
Humidity: Humidity % 52 % 66 %
Wind Speed: WindSpeedMPH mph 0.0 mph 3.6 mph
Wind Gust: WindSpeedGustMPH mph - -
Wind:- - SSW
Pressure: PressureIn in 29.60 in -
Precipitation: 0.00 in    
Historical Graphs
 
 
Tabular Data for January 12, 2016
Time Temperature Dew Point Pressure Wind Wind Speed Wind Gust Humidity Rainfall Rate (Hourly)
TemperatureF °F DewpointF °F PressureIn in Calm     Humidity % HourlyPrecipIn in
00:00 27.3 °F 12.8 °F 30.09 in West 2.0 mph 5.0 mph 54 % 0.00 in
00:06 27.2 °F 12.7 °F 30.08 in WNW 2.6 mph 5.8 mph 54 % 0.00 in
00:11 27.2 °F 12.3 °F 30.08 in SW 1.8 mph 5.8 mph 53 % 0.00 in
00:16 27.2 °F 12.7 °F 30.08 in NW 1.7 mph 5.8 mph 54 % 0.00 in
00:21 27.1 °F 12.6 °F 30.08 in West 2.3 mph 4.6 mph 54 % 0.00 in
00:26 27.1 °F 12.6 °F 30.08 in West 2.3 mph 4.6 mph 54 % 0.00 in
00:31 27.1 °F 11.8 °F 30.07 in WNW 3.8 mph 4.6 mph 52 % 0.00 in
00:36 27.0 °F 11.7 °F 30.07 in West 3.6 mph 5.8 mph 52 % 0.00 in
00:41 27.0 °F 11.7 °F 30.07 in WNW 0.8 mph 3.0 mph 52 % 0.00 in
00:46 27.0 °F 11.7 °F 30.08 in WNW 3.4 mph 4.0 mph 52 % 0.00 in
00:51 26.9 °F 12.0 °F 30.08 in North 1.9 mph 3.5 mph 53 % 0.00 in
00:57 26.8 °F 12.4 °F 30.08 in NW 1.3 mph 4.6 mph 54 % 0.00 in
01:02 26.8 °F 11.9 °F 30.08 in WNW 1.6 mph 3.5 mph 53 % 0.00 in
01:07 26.7 °F 11.8 °F 30.08 in West 2.6 mph 4.6 mph 53 % 0.00 in
01:12 26.7 °F 12.3 °F 30.08 in West 1.5 mph 3.5 mph 54 % 0.00 in
01:17 26.6 °F 12.2 °F 30.08 in SW 5.2 mph 6.9 mph 54 % 0.00 in
01:22 26.6 °F 12.2 °F 30.08 in WSW 2.4 mph 5.0 mph 54 % 0.00 in
01:27 26.5 °F 12.1 °F 30.08 in West 3.1 mph 4.0 mph 54 % 0.00 in
01:32 26.4 °F 12.0 °F 30.08 in West 1.8 mph 3.5 mph 54 % 0.00 in
01:37 26.4 °F 12.0 °F 30.08 in SW 2.8 mph 5.0 mph 54 % 0.00 in
01:48 26.3 °F 11.9 °F 30.08 in WSW 1.6 mph 3.5 mph 54 % 0.00 in
01:53 26.3 °F 12.3 °F 30.08 in WSW 0.3 mph 2.3 mph 55 % 0.00 in
01:58 26.2 °F 12.2 °F 30.08 in Calm     55 % 0.00 in
02:03 26.2 °F 12.2 °F 30.09 in WSW 0.4 mph 1.2 mph 55 % 0.00 in
02:08 26.1 °F 13.3 °F 30.09 in Calm     58 % 0.00 in
02:13 26.0 °F 13.2 °F 30.09 in WSW 1.4 mph 2.3 mph 58 % 0.00 in
02:18 25.8 °F 13.4 °F 30.09 in WSW 0.8 mph 1.2 mph 59 % 0.00 in
02:23 25.6 °F 13.2 °F 30.09 in SW 2.1 mph 3.5 mph 59 % 0.00 in
02:28 25.5 °F 13.9 °F 30.09 in SW 1.2 mph 3.5 mph 61 % 0.00 in
02:39 25.1 °F 13.9 °F 30.09 in SW 1.3 mph 2.3 mph 62 % 0.00 in
02:44 25.0 °F 13.8 °F 30.09 in SW 1.8 mph 3.5 mph 62 % 0.00 in
02:54 24.7 °F 13.9 °F 30.09 in Calm     63 % 0.00 in
02:59 24.4 °F 13.6 °F 30.09 in SW 0.7 mph 2.3 mph 63 % 0.00 in
03:04 24.3 °F 13.9 °F 30.09 in Calm     64 % 0.00 in
03:09 24.2 °F 13.8 °F 30.09 in SW 0.5 mph 1.2 mph 64 % 0.00 in
03:14 24.0 °F 13.6 °F 30.08 in SW 0.2 mph 1.2 mph 64 % 0.00 in
03:24 23.6 °F 13.2 °F 30.08 in Calm   1.2 mph 64 % 0.00 in
03:30 23.5 °F 12.7 °F 30.08 in SW 0.4 mph 1.2 mph 63 % 0.00 in
03:35 23.4 °F 13.0 °F 30.08 in Calm     64 % 0.00 in
03:40 23.3 °F 12.9 °F 30.08 in Calm     64 % 0.00 in
03:45 23.1 °F 12.7 °F 30.08 in SW 0.3 mph 2.3 mph 64 % 0.00 in
03:50 23.0 °F 13.0 °F 30.08 in SW 0.5 mph 1.2 mph 65 % 0.00 in
03:55 22.9 °F 12.9 °F 30.08 in SW 0.4 mph 1.0 mph 65 % 0.00 in
04:00 22.8 °F 13.1 °F 30.08 in SW 1.0 mph 2.3 mph 66 % 0.00 in
04:05 22.6 °F 12.9 °F 30.08 in Calm     66 % 0.00 in
04:10 22.6 °F 13.3 °F 30.08 in Calm   1.2 mph 67 % 0.00 in
04:15 22.4 °F 13.1 °F 30.08 in Calm     67 % 0.00 in
04:21 22.3 °F 13.0 °F 30.08 in SW 0.2 mph 1.2 mph 67 % 0.00 in
04:26 22.2 °F 12.6 °F 30.07 in SW 0.2 mph 1.2 mph 66 % 0.00 in
04:31 22.1 °F 12.8 °F 30.07 in Calm     67 % 0.00 in
04:36 22.0 °F 12.7 °F 30.07 in Calm     67 % 0.00 in
04:41 22.0 °F 12.7 °F 30.07 in Calm     67 % 0.00 in
04:46 21.9 °F 12.6 °F 30.07 in Calm     67 % 0.00 in
04:51 21.8 °F 12.5 °F 30.07 in Calm     67 % 0.00 in
05:01 21.7 °F 12.8 °F 30.07 in Calm     68 % 0.00 in
05:06 21.6 °F 13.3 °F 30.07 in SW 0.3 mph 1.2 mph 70 % 0.00 in
05:12 21.5 °F 13.2 °F 30.07 in Calm   1.2 mph 70 % 0.00 in
05:17 21.5 °F 13.2 °F 30.07 in SW 0.3 mph 1.2 mph 70 % 0.00 in
05:22 21.5 °F 13.2 °F 30.07 in Calm   1.0 mph 70 % 0.00 in
05:27 21.4 °F 13.1 °F 30.07 in Calm     70 % 0.00 in
05:32 21.4 °F 13.1 °F 30.07 in Calm   1.2 mph 70 % 0.00 in
05:37 21.3 °F 13.0 °F 30.07 in Calm     70 % 0.00 in
05:42 21.3 °F 13.0 °F 30.07 in Calm     70 % 0.00 in
05:47 21.2 °F 13.3 °F 30.07 in Calm     71 % 0.00 in
05:52 21.2 °F 13.3 °F 30.07 in Calm     71 % 0.00 in
05:57 21.1 °F 13.2 °F 30.06 in Calm   1.2 mph 71 % 0.00 in
06:08 21.1 °F 13.2 °F 30.06 in Calm     71 % 0.00 in
06:18 21.0 °F 13.4 °F 30.06 in Calm     72 % 0.00 in
06:23 21.0 °F 13.4 °F 30.06 in Calm     72 % 0.00 in
06:28 20.9 °F 13.3 °F 30.05 in Calm     72 % 0.00 in
06:33 20.8 °F 13.2 °F 30.05 in Calm     72 % 0.00 in
06:38 20.7 °F 13.1 °F 30.05 in Calm     72 % 0.00 in
06:43 20.6 °F 13.0 °F 30.04 in Calm     72 % 0.00 in
06:48 20.6 °F 13.3 °F 30.04 in Calm     73 % 0.00 in
06:54 20.5 °F 13.2 °F 30.03 in Calm     73 % 0.00 in
07:04 20.3 °F 13.3 °F 30.03 in SW 0.3 mph 1.2 mph 74 % 0.00 in
07:09 20.2 °F 13.5 °F 30.03 in Calm     75 % 0.00 in
07:14 20.2 °F 13.5 °F 30.02 in Calm     75 % 0.00 in
07:19 20.1 °F 13.4 °F 30.02 in Calm     75 % 0.00 in
07:24 20.1 °F 13.7 °F 30.02 in Calm     76 % 0.00 in
07:29 20.0 °F 13.6 °F 30.02 in Calm     76 % 0.00 in
07:34 20.0 °F 13.6 °F 30.01 in Calm     76 % 0.00 in
07:39 20.0 °F 13.6 °F 30.01 in Calm     76 % 0.00 in
07:45 20.0 °F 13.6 °F 30.01 in Calm     76 % 0.00 in
07:50 20.0 °F 13.9 °F 30.01 in Calm     77 % 0.00 in
07:55 20.2 °F 14.1 °F 30.00 in Calm   1.2 mph 77 % 0.00 in
08:00 20.3 °F 14.2 °F 30.00 in SW 0.6 mph 2.3 mph 77 % 0.00 in
08:05 20.6 °F 14.2 °F 30.00 in SW 0.2 mph 2.0 mph 76 % 0.00 in
08:10 21.0 °F 14.0 °F 30.00 in SSE 0.8 mph 1.2 mph 74 % 0.00 in
08:15 21.2 °F 14.2 °F 30.00 in SSE 0.7 mph 1.2 mph 74 % 0.00 in
08:20 21.8 °F 14.2 °F 30.00 in SSE 1.2 mph 2.0 mph 72 % 0.00 in
08:26 22.5 °F 13.9 °F 29.99 in SE 1.2 mph 4.0 mph 69 % 0.00 in
08:31 23.2 °F 13.9 °F 29.99 in SE 1.8 mph 3.5 mph 67 % 0.00 in
08:36 23.9 °F 13.8 °F 29.99 in SE 1.0 mph 3.5 mph 65 % 0.00 in
08:41 24.7 °F 13.9 °F 29.99 in SE 0.8 mph 2.3 mph 63 % 0.00 in
08:46 25.3 °F 14.1 °F 29.99 in SE 0.5 mph 1.2 mph 62 % 0.00 in
08:56 26.4 °F 13.2 °F 29.98 in SSE 1.1 mph 3.5 mph 57 % 0.00 in
09:01 26.8 °F 14.0 °F 29.98 in SE 1.6 mph 3.5 mph 58 % 0.00 in
09:06 27.2 °F 14.4 °F 29.98 in SSE 1.8 mph 4.0 mph 58 % 0.00 in
09:11 27.8 °F 14.5 °F 29.98 in SSE 1.2 mph 1.2 mph 57 % 0.00 in
09:17 28.3 °F 15.0 °F 29.98 in SE 2.3 mph 4.0 mph 57 % 0.00 in
09:22 29.0 °F 14.8 °F 29.98 in SSE 2.9 mph 4.6 mph 55 % 0.00 in
09:27 29.7 °F 15.5 °F 29.98 in SE 5.2 mph 8.1 mph 55 % 0.00 in
09:32 30.2 °F 15.5 °F 29.98 in South 2.3 mph 4.0 mph 54 % 0.00 in
09:37 30.6 °F 15.9 °F 29.98 in SE 1.4 mph 3.5 mph 54 % 0.00 in
09:42 31.0 °F 16.3 °F 29.97 in ESE 1.7 mph 3.5 mph 54 % 0.00 in
09:47 31.4 °F 16.7 °F 29.97 in ESE 2.8 mph 4.6 mph 54 % 0.00 in
09:57 31.9 °F 17.1 °F 29.96 in SSE 1.3 mph 3.5 mph 54 % 0.00 in
10:02 32.2 °F 17.4 °F 29.96 in ESE 1.4 mph 3.5 mph 54 % 0.00 in
10:08 32.5 °F 17.7 °F 29.95 in SSW 2.6 mph 5.8 mph 54 % 0.00 in
10:13 33.0 °F 18.6 °F 29.95 in ESE 1.2 mph 4.6 mph 55 % 0.00 in
10:18 33.5 °F 19.0 °F 29.95 in SE 3.4 mph 5.8 mph 55 % 0.00 in
10:23 33.8 °F 18.9 °F 29.94 in SE 5.8 mph 11.5 mph 54 % 0.00 in
10:28 34.1 °F 19.2 °F 29.93 in South 5.9 mph 10.4 mph 54 % 0.00 in
10:33 34.3 °F 19.8 °F 29.93 in ESE 4.8 mph 8.1 mph 55 % 0.00 in
10:38 34.8 °F 20.7 °F 29.93 in SE 6.9 mph 9.2 mph 56 % 0.00 in
10:43 35.1 °F 21.4 °F 29.92 in South 4.0 mph 5.8 mph 57 % 0.00 in
10:53 35.7 °F 22.4 °F 29.91 in SSE 4.5 mph 6.9 mph 58 % 0.00 in
10:59 36.0 °F 22.6 °F 29.90 in ESE 6.5 mph 10.0 mph 58 % 0.00 in
11:04 36.0 °F 22.2 °F 29.89 in SE 3.4 mph 8.1 mph 57 % 0.00 in
11:14 36.5 °F 23.5 °F 29.89 in ESE 6.0 mph 9.2 mph 59 % 0.00 in
11:19 36.9 °F 23.9 °F 29.88 in SE 7.5 mph 10.4 mph 59 % 0.00 in
11:24 37.5 °F 24.5 °F 29.88 in SE 2.4 mph 3.5 mph 59 % 0.00 in
11:29 37.9 °F 24.8 °F 29.87 in SSW 3.4 mph 5.8 mph 59 % 0.00 in
11:44 39.6 °F 27.2 °F 29.85 in South 1.9 mph 3.5 mph 61 % 0.00 in
11:50 40.0 °F 27.2 °F 29.84 in South 3.3 mph 6.9 mph 60 % 0.00 in
11:55 40.5 °F 27.7 °F 29.84 in South 4.2 mph 7.0 mph 60 % 0.00 in
12:00 40.9 °F 27.2 °F 29.83 in SW 9.1 mph 14.0 mph 58 % 0.00 in
12:05 41.4 °F 26.9 °F 29.83 in South 5.1 mph 13.8 mph 56 % 0.00 in
12:10 41.7 °F 26.7 °F 29.82 in SSE 7.1 mph 11.5 mph 55 % 0.00 in
12:15 41.9 °F 26.9 °F 29.82 in SSE 4.5 mph 6.9 mph 55 % 0.00 in
12:25 42.4 °F 27.4 °F 29.81 in South 4.6 mph 9.2 mph 55 % 0.00 in
12:30 42.5 °F 27.0 °F 29.80 in SW 3.0 mph 5.0 mph 54 % 0.00 in
12:35 42.7 °F 27.2 °F 29.79 in South 5.9 mph 13.8 mph 54 % 0.00 in
12:41 42.8 °F 27.3 °F 29.79 in South 9.2 mph 12.7 mph 54 % 0.00 in
12:46 42.8 °F 27.3 °F 29.78 in South 6.8 mph 11.5 mph 54 % 0.00 in
12:51 42.7 °F 27.6 °F 29.78 in South 6.7 mph 11.5 mph 55 % 0.00 in
12:56 42.6 °F 27.5 °F 29.77 in South 2.9 mph 6.9 mph 55 % 0.00 in
13:01 42.6 °F 27.5 °F 29.76 in South 7.2 mph 15.0 mph 55 % 0.00 in
13:06 42.6 °F 28.0 °F 29.76 in SSW 3.4 mph 9.2 mph 56 % 0.00 in
13:11 42.7 °F 28.5 °F 29.75 in SSW 5.9 mph 10.4 mph 57 % 0.00 in
13:16 42.7 °F 28.5 °F 29.75 in SE 5.6 mph 11.5 mph 57 % 0.00 in
13:21 42.7 °F 28.9 °F 29.74 in South 6.5 mph 12.7 mph 58 % 0.00 in
13:26 42.8 °F 29.0 °F 29.74 in SSW 4.1 mph 4.1 mph 58 % 0.00 in
13:32 42.9 °F 29.1 °F 29.73 in South 9.2 mph 10.4 mph 58 % 0.00 in
13:37 42.9 °F 29.1 °F 29.73 in South 7.4 mph 11.5 mph 58 % 0.00 in
13:42 43.0 °F 29.2 °F 29.72 in SSW 6.7 mph 11.5 mph 58 % 0.00 in
13:47 43.0 °F 28.8 °F 29.71 in SSE 4.3 mph 8.1 mph 57 % 0.00 in
13:52 43.0 °F 29.2 °F 29.71 in SSW 5.4 mph 11.5 mph 58 % 0.00 in
13:57 43.0 °F 29.6 °F 29.71 in South 10.4 mph 20.7 mph 59 % 0.00 in
14:02 43.0 °F 29.6 °F 29.70 in SSE 3.6 mph 8.0 mph 59 % 0.00 in
14:07 43.1 °F 30.1 °F 29.70 in SSE 5.8 mph 6.0 mph 60 % 0.00 in
14:12 43.2 °F 29.8 °F 29.70 in South 4.0 mph 5.0 mph 59 % 0.00 in
14:17 43.2 °F 30.6 °F 29.69 in SSW 2.6 mph 5.0 mph 61 % 0.00 in
14:23 43.3 °F 30.7 °F 29.68 in SSW 5.4 mph 9.2 mph 61 % 0.00 in
14:28 43.4 °F 30.8 °F 29.68 in SSE 5.7 mph 10.4 mph 61 % 0.00 in
14:33 43.4 °F 30.8 °F 29.67 in South 2.0 mph 4.0 mph 61 % 0.00 in
14:38 43.5 °F 30.9 °F 29.67 in SSW 4.5 mph 7.0 mph 61 % 0.00 in
14:43 43.6 °F 30.6 °F 29.67 in SSW 6.9 mph 9.0 mph 60 % 0.00 in
14:48 43.7 °F 30.3 °F 29.67 in South 5.8 mph 13.8 mph 59 % 0.00 in
14:53 43.7 °F 30.3 °F 29.66 in South 7.5 mph 9.2 mph 59 % 0.00 in
14:58 43.7 °F 30.3 °F 29.66 in SW 10.4 mph 16.1 mph 59 % 0.00 in
15:03 43.8 °F 30.0 °F 29.66 in SW 6.8 mph 8.0 mph 58 % 0.00 in
15:08 43.8 °F 30.0 °F 29.66 in SSE 4.5 mph 9.2 mph 58 % 0.00 in
15:14 43.8 °F 30.0 °F 29.65 in SSW 6.9 mph 10.4 mph 58 % 0.00 in
15:19 43.8 °F 30.0 °F 29.65 in SW 2.2 mph 8.1 mph 58 % 0.00 in
15:24 43.8 °F 29.5 °F 29.65 in WSW 4.9 mph 9.2 mph 57 % 0.00 in
15:34 43.8 °F 29.5 °F 29.65 in SSW 5.3 mph 8.1 mph 57 % 0.00 in
15:39 43.9 °F 29.6 °F 29.65 in SW 4.7 mph 11.5 mph 57 % 0.00 in
15:44 44.0 °F 30.2 °F 29.64 in SSW 5.5 mph 9.2 mph 58 % 0.00 in
15:49 44.0 °F 30.6 °F 29.64 in WSW 5.9 mph 8.1 mph 59 % 0.00 in
16:00 43.9 °F 30.9 °F 29.63 in South 8.2 mph 12.7 mph 60 % 0.00 in
16:05 44.0 °F 31.0 °F 29.63 in SW 3.9 mph 6.9 mph 60 % 0.00 in
16:10 44.0 °F 30.6 °F 29.64 in WSW 6.6 mph 13.8 mph 59 % 0.00 in
16:15 44.0 °F 30.2 °F 29.63 in SSW 12.2 mph 19.6 mph 58 % 0.00 in
16:20 44.0 °F 29.7 °F 29.63 in SW 10.7 mph 15.0 mph 57 % 0.00 in
16:25 44.0 °F 29.7 °F 29.63 in SW 8.1 mph 19.0 mph 57 % 0.00 in
16:30 44.0 °F 29.7 °F 29.63 in SSW 4.5 mph 10.4 mph 57 % 0.00 in
16:35 43.9 °F 29.2 °F 29.64 in SW 5.2 mph 16.0 mph 56 % 0.00 in
16:40 43.8 °F 29.1 °F 29.63 in SW 9.4 mph 18.4 mph 56 % 0.00 in
16:51 43.5 °F 28.8 °F 29.63 in SW 9.8 mph 15.0 mph 56 % 0.00 in
16:56 43.3 °F 29.1 °F 29.63 in SSW 6.0 mph 12.0 mph 57 % 0.00 in
17:01 43.1 °F 29.7 °F 29.64 in SW 10.9 mph 20.7 mph 59 % 0.00 in
17:06 42.7 °F 30.2 °F 29.64 in WSW 7.9 mph 18.4 mph 61 % 0.00 in
17:11 42.4 °F 30.7 °F 29.64 in West 8.9 mph 17.3 mph 63 % 0.00 in
17:16 42.0 °F 31.5 °F 29.65 in WSW 11.1 mph 19.6 mph 66 % 0.00 in
17:21 41.4 °F 32.3 °F 29.66 in WSW 12.2 mph 16.1 mph 70 % 0.00 in
17:26 40.8 °F 32.5 °F 29.66 in SW 6.3 mph 13.8 mph 72 % 0.00 in
17:31 40.4 °F 32.8 °F 29.65 in SSE 9.5 mph 18.4 mph 74 % 0.00 in
17:36 39.8 °F 33.2 °F 29.66 in SW 6.5 mph 7.0 mph 77 % 0.00 in
17:42 39.3 °F 33.3 °F 29.66 in WSW 6.6 mph 17.3 mph 79 % 0.00 in
17:52 38.5 °F 33.5 °F 29.66 in SSW 6.9 mph 10.4 mph 82 % 0.00 in
17:57 38.1 °F 33.4 °F 29.66 in SW 6.4 mph 10.4 mph 83 % 0.00 in
18:02 37.9 °F 33.5 °F 29.66 in SW 3.9 mph 8.0 mph 84 % 0.00 in
18:07 37.7 °F 33.3 °F 29.65 in SW 4.6 mph 8.1 mph 84 % 0.00 in
18:12 37.5 °F 33.4 °F 29.65 in SW 7.3 mph 11.5 mph 85 % 0.00 in
18:17 37.4 °F 33.0 °F 29.65 in SSW 3.0 mph 5.0 mph 84 % 0.00 in
18:22 37.3 °F 32.9 °F 29.65 in South 1.9 mph 4.0 mph 84 % 0.00 in
18:27 37.1 °F 32.7 °F 29.64 in WSW 3.1 mph 8.1 mph 84 % 0.00 in
18:33 37.1 °F 32.7 °F 29.64 in SW 2.4 mph 3.5 mph 84 % 0.00 in
18:38 37.0 °F 32.6 °F 29.64 in WSW 4.4 mph 10.4 mph 84 % 0.00 in
18:43 36.9 °F 32.2 °F 29.64 in SSW 4.2 mph 6.9 mph 83 % 0.00 in
18:48 36.9 °F 32.2 °F 29.64 in South 3.5 mph 5.8 mph 83 % 0.00 in
18:53 36.8 °F 31.8 °F 29.64 in SW 3.9 mph 5.8 mph 82 % 0.00 in
18:58 36.7 °F 31.7 °F 29.64 in SSW 1.4 mph 3.5 mph 82 % 0.00 in
19:03 36.6 °F 31.6 °F 29.64 in SW 3.3 mph 4.6 mph 82 % 0.00 in
19:08 36.6 °F 31.6 °F 29.64 in SW 1.5 mph 3.5 mph 82 % 0.00 in
19:13 36.5 °F 31.5 °F 29.64 in WNW 2.4 mph 4.6 mph 82 % 0.00 in
19:24 36.4 °F 31.7 °F 29.64 in WSW 3.2 mph 4.0 mph 83 % 0.00 in
19:29 36.4 °F 31.4 °F 29.63 in SW 3.3 mph 3.5 mph 82 % 0.00 in
19:34 36.4 °F 31.7 °F 29.63 in SW 2.7 mph 3.5 mph 83 % 0.00 in
19:39 36.3 °F 31.6 °F 29.63 in SW 2.1 mph 3.5 mph 83 % 0.00 in
19:44 36.3 °F 31.3 °F 29.63 in WSW 0.8 mph 2.3 mph 82 % 0.00 in
19:49 36.2 °F 31.2 °F 29.63 in WSW 1.9 mph 4.0 mph 82 % 0.00 in
19:54 36.1 °F 31.1 °F 29.62 in SSW 1.0 mph 3.5 mph 82 % 0.00 in
19:59 36.1 °F 31.1 °F 29.62 in Calm   1.2 mph 82 % 0.00 in
20:04 36.0 °F 31.0 °F 29.62 in Calm   1.2 mph 82 % 0.00 in
20:09 35.9 °F 30.9 °F 29.62 in SW 0.6 mph 1.2 mph 82 % 0.00 in
20:15 35.7 °F 30.7 °F 29.61 in Calm   1.0 mph 82 % 0.00 in
20:20 35.6 °F 30.6 °F 29.61 in Calm     82 % 0.00 in
20:25 35.4 °F 30.5 °F 29.61 in Calm     82 % 0.00 in
20:30 35.2 °F 30.3 °F 29.61 in Calm     82 % 0.00 in
20:35 35.0 °F 30.1 °F 29.60 in Calm     82 % 0.00 in
20:40 34.7 °F 29.8 °F 29.60 in Calm     82 % 0.00 in
20:45 34.5 °F 29.9 °F 29.60 in Calm     83 % 0.00 in
20:50 34.3 °F 30.0 °F 29.61 in Calm     84 % 0.00 in
20:55 34.1 °F 29.8 °F 29.60 in Calm     84 % 0.00 in
21:00 33.9 °F 29.9 °F 29.60 in Calm     85 % 0.00 in
21:06 33.7 °F 29.7 °F 29.60 in Calm     85 % 0.00 in
21:11 33.5 °F 29.5 °F 29.60 in Calm     85 % 0.00 in
21:16 33.4 °F 29.4 °F 29.60 in Calm     85 % 0.00 in
21:21 33.3 °F 29.6 °F 29.60 in South 2.3 mph 6.9 mph 86 % 0.00 in
21:26 33.5 °F 30.3 °F 29.61 in SW 7.2 mph 14.0 mph 88 % 0.00 in
21:31 34.2 °F 30.7 °F 29.61 in SW 6.7 mph 12.0 mph 87 % 0.00 in
21:36 35.2 °F 31.4 °F 29.62 in SSW 10.6 mph 18.4 mph 86 % 0.00 in
21:41 36.1 °F 31.7 °F 29.62 in WNW 8.4 mph 15.0 mph 84 % 0.00 in
21:46 36.5 °F 31.8 °F 29.62 in West 9.7 mph 14.0 mph 83 % 0.00 in
21:51 36.6 °F 31.6 °F 29.62 in WSW 7.6 mph 18.4 mph 82 % 0.00 in
21:57 36.4 °F 31.1 °F 29.62 in WSW 3.5 mph 11.5 mph 81 % 0.00 in
22:02 36.0 °F 30.1 °F 29.62 in West 9.0 mph 13.8 mph 79 % 0.00 in
22:07 35.8 °F 29.3 °F 29.62 in NW 8.3 mph 15.0 mph 77 % 0.00 in
22:12 35.6 °F 28.8 °F 29.63 in WNW 7.2 mph 16.1 mph 76 % 0.00 in
22:17 35.6 °F 28.5 °F 29.63 in WSW 11.0 mph 17.3 mph 75 % 0.00 in
22:22 35.5 °F 28.0 °F 29.64 in WSW 5.3 mph 11.5 mph 74 % 0.00 in
22:27 35.4 °F 27.6 °F 29.63 in WSW 9.2 mph 13.8 mph 73 % 0.00 in
22:32 35.2 °F 27.1 °F 29.63 in West 5.5 mph 10.4 mph 72 % 0.00 in
22:37 35.0 °F 26.2 °F 29.64 in WSW 5.6 mph 8.1 mph 70 % 0.00 in
22:42 34.8 °F 25.7 °F 29.64 in West 10.7 mph 19.6 mph 69 % 0.00 in
22:48 34.6 °F 24.4 °F 29.63 in WSW 12.8 mph 19.6 mph 66 % 0.00 in
22:53 34.5 °F 24.3 °F 29.63 in WSW 5.0 mph 14.0 mph 66 % 0.00 in
23:03 34.2 °F 22.5 °F 29.63 in WSW 9.5 mph 17.3 mph 62 % 0.00 in
23:08 34.1 °F 22.4 °F 29.63 in WSW 8.9 mph 21.9 mph 62 % 0.00 in
23:13 34.0 °F 22.3 °F 29.63 in WSW 7.0 mph 19.6 mph 62 % 0.00 in
23:18 33.9 °F 21.9 °F 29.63 in WNW 9.4 mph 16.0 mph 61 % 0.00 in
23:23 33.8 °F 20.6 °F 29.64 in WSW 9.0 mph 22.0 mph 58 % 0.00 in
23:28 33.7 °F 20.5 °F 29.64 in WSW 11.4 mph 17.3 mph 58 % 0.00 in
23:33 33.5 °F 21.1 °F 29.64 in SW 12.1 mph 25.3 mph 60 % 0.00 in
23:39 33.4 °F 21.0 °F 29.65 in NW 13.0 mph 19.6 mph 60 % 0.00 in
23:44 33.1 °F 21.1 °F 29.64 in WNW 12.3 mph 26.5 mph 61 % 0.00 in
23:49 32.9 °F 20.9 °F 29.65 in West 12.4 mph 17.3 mph 61 % 0.00 in
23:54 32.7 °F 21.1 °F 29.65 in SW 7.7 mph 15.0 mph 62 % 0.00 in
Crab Meadow Weather
Compliments of Weather Underground - 2.75 mb

Script developed by  Jim McMurry - jmcmurry@mwt.net Adapted for the template by  Wim van der Kuil - Leuven-Template.eu

Weather Terms: Watch - A watch is used when the risk of a hazardous weather or hydrologic event has increased significantly, but its occurrence, location or timing is still uncertain. It is intended to provide enough lead time so those who need to set their plans in motion can do so. A watch means that hazardous weather is possible. People should have a plan of action in case a storm threatens and they should listen for later information and possible warnings especially when planning travel or outdoor activities.